Regional Weather Roundup
Issued by NWS

Home | Current Version | Previous Version | Text Only | Print | Product List | Glossary Off
Versions: 1 2 3 4 5 6 7 8 9 10 11 12 13 14 15 16 17 18 19 20 21 22 23 24 25 26 27 28 29 30 31 32 33 34 35 36 37 38 39 40 41 42 43 44 45 46 47 48 49 50

000
ASUS43 KIND 222300
RWRIN

WEATHER ROUNDUP FOR INDIANA
NATIONAL WEATHER SERVICE INDIANAPOLIS IN
700 PM EDT TUE AUG 22 2017

NOTE: "FAIR" INDICATES FEW OR NO CLOUDS BELOW 12,000 FEET WITH NO
SIGNIFICANT WEATHER AND/OR OBSTRUCTIONS TO VISIBILITY.

* - STATION DOES NOT REPORT WEATHER SUCH AS PRECIPITATION OR FOG.

+ - STATION NOT QUALITY CONTROLLED BY THE NATIONAL WEATHER SERVICE.
    USE DATA WITH CAUTION...ESPECIALLY DEWPOINT AND RELATIVE
    HUMIDITY OBSERVATIONS.

INZ001>003-010>013-019-020-230000-
NORTHWEST INDIANA

CITY           SKY/WX    TMP DP  RH WIND       PRES   REMARKS
GARY /AIRPORT/ MOSUNNY   79  57  47 NW10      29.92R
MICHIGAN CITY+ SUNNY     72  59  64 N7        29.93R
MONTICELLO +   SUNNY     76  61  59 NW15      29.92S

$$

LMZ046-743>745-230000-
SOUTHERN LAKE MICHIGAN

STATION/POSITION TIME  TEMP    WIND        PRES    WAVE
                       AIR SEA DIR/SP/G            HT
                 (UTC) (F)     (DEG/KT/KT) (MB)    (FT)
BURNS HARBOR     2240   74     360/ 14/ 18 1013.5R
MICHIGAN CITY    2230   72     360/ 18/ 20   N/A
5NW MICH CITY    2250   73 74   20/ 14/ 17   N/A     3

$$

INZ004-005-014>016-021>024-230000-
NORTH CENTRAL INDIANA

CITY           SKY/WX    TMP DP  RH WIND       PRES   REMARKS
GOSHEN         PTSUNNY   74  57  55 NW12G25   29.91R
SOUTH BEND     SUNNY     73  61  65 N12       29.92R

$$

INZ006>009-017-018-025>027-230000-
NORTHEAST INDIANA

CITY           SKY/WX    TMP DP  RH WIND       PRES   REMARKS
FORT WAYNE     PTSUNNY   75  60  59 NW14G21   29.89R

$$

INZ028-029-035-036-043>045-051>053-230000-
WEST CENTRAL INDIANA

CITY           SKY/WX    TMP DP  RH WIND       PRES   REMARKS
LAFAYETTE      MOSUNNY   75  62  64 NW12      29.93R
TERRE HAUTE    MOSUNNY   81  64  56 W14G22    29.93S

$$

INZ030>032-037>040-046>048-054>057-064-065-230000-
CENTRAL INDIANA

CITY           SKY/WX    TMP DP  RH WIND       PRES   REMARKS
GREENWOOD *+   MOSUNNY  N/A N/A N/A NW10      29.92S
INDIANAPOLIS   MOSUNNY   79  64  60 W17       29.91S
-EAGLE CREEK   PTSUNNY   79  65  62 NW13      29.91S
KOKOMO +       MOSUNNY   75  64  68 W14       29.92R
MT COMFORT *+  MOSUNNY   79  64  61 NW13      29.92S
SHELBYVILLE    MOSUNNY   79  65  62 NW8       29.91R

$$

INZ033-034-041-042-049-050-058-059-230000-
EAST CENTRAL INDIANA

CITY           SKY/WX    TMP DP  RH WIND       PRES   REMARKS
MUNCIE         SUNNY     79  65  62 W12G18    29.90F
RICHMOND +     MOSUNNY   73  68  83 W7        29.92F

$$

INZ060-061-067>069-081>083-085>088-230000-
SOUTHWEST INDIANA

CITY           SKY/WX    TMP DP  RH WIND       PRES   REMARKS
EVANSVILLE     MOSUNNY   81  68  64 W6        29.96R
HUNTINGBURG +  CLOUDY    80  71  74 NW6       29.94F

$$

INZ062-063-066-070>080-084-089>092-230000-
SOUTH CENTRAL AND SOUTHEAST INDIANA

CITY           SKY/WX    TMP DP  RH WIND       PRES   REMARKS
BLOOMINGTON    CLOUDY    80  64  58 W7        29.93S
MADISON *+     CLOUDY    73  70  88 SW3       29.96R
SEYMOUR +      CLOUDY    82  66  57 NW7       29.93R

$$





USA.gov is the U.S. government's official web portal to all federal, state and local government web resources and services.